Kezdőlap
METAR-TAF:

METAR-TAF

Repülőterek :

Winona Municipal Airport (Max Conrad Field)

Winona, Minnesota, Amerikai Egyesült Államok

földrajzi szélesség: 44-05N, földrajzi hosszúság: 091-42W, magasság: 200 m

Jelenlegi meteorológiai megfigyelések

A jelentés 18 perccel ezelõtt készült, 12:55 UTC
Nyugat-északnyugati szél 7 kt
Hőmérséklet 0°C
Páratartalom 64%
Légköri nyomás 1026 hPa
Látótávolság: 16.1 km
Borult 12000 lábon

METAR: KONA 041255Z AUTO 30007KT 10SM OVC120 00/M06 A3030 RMK AO2

Idő: 07:13 (13:13 UTC)


TAF: hiányzik

Meteorológiai megfigyelések és előrejelzések több, mint 4000 repülőtéren (METAR és TAF jelentéseket).

A térképen piros és sárga pontok jelzik az elérhető meteorológiai állomásokat.

Mozgassa az egeret a pont fölött, hogy megjelenjen az állomás neve.

Azután kattintson az időjárási megfigyelések és előrejelzések megtekintéséhez.

A térkép megváltoztatása: kattintson a fekete keresztel jelölt zöld gombra ráközelítéshez, a vonallal jelölt zöld gombra távolításhoz, vagy a zöld nyilakra a szomszédos térképek eléréséhez.


METAR-TAF: